Location: Campestrin
(46.4667°N, 11.7167°E)
Time: 03:19:08
(UTC+00:00)

Cosmos 1825 - Pass Details

Date: 18 April 2021
Orbit: 502 x 505 km, 82.5° (Epoch: 16 May)

Event Time Altitude Azimuth Distance (km) Brightness Sun altitude
Rises 20:03:19 0° 340° (NNW) 2,617 6.8 -18.6°
Reaches altitude 10° 20:05:38 10° 329° (NNW) 1,727 5.9 -18.9°
Maximum altitude 20:08:54 28° 269° (W) 974 4.0 -19.3°
Enters shadow 20:12:02 11° 211° (SSW) 1,672 4.7 -19.7°
